Wind_Speed
54 54 55 56 56 52 48 47 48 49 50 51 50 48 47 47 47 47 48 46 45 48 49 49 48 48 49 51 52 52 52 54 56 57 58 59 61 63 64 65 66 65 65 65 65 66 68 69 70 70 71 72 72 72 72 73 74 75 76 75 72 67 63 59 56 56 56 52 47 45 43 41 41 42 43 44 44 45 46 46 47 51 55 57 57 57 57
55 57 58 58 57 54 52 50 51 52 53 54 52 50 49 49 48 48 48 47 47 48 49 49 49 48 50 52 52 52 52 54 55 57 59 60 62 64 65 67 67 66 66 66 67 68 70 71 71 72 73 75 75 75 75 76 76 78 78 76 72 66 61 57 54 54 54 51 46 43 41 39 39 40 42 43 43 44 45 47 49 53 56 57 58 57 58
58 61 61 60 58 56 54 53 54 56 57 55 53 51 51 51 49 49 48 48 48 49 50 51 50 50 51 52 53 53 54 55 56 58 60 61 63 65 67 67 68 68 69 69 69 70 71 72 72 74 76 77 77 77 78 78 79 80 80 77 72 65 60 57 53 52 52 50 44 41 40 39 38 39 40 41 43 44 45 48 51 54 56 58 58 57 57
62 63 63 62 61 58 56 56 58 59 58 56 55 54 54 53 52 51 51 50 51 51 51 52 53 53 54 55 55 56 56 57 58 59 61 62 65 67 68 68 69 70 71 71 71 72 73 73 74 76 77 78 78 79 79 81 82 82 81 77 70 64 60 57 53 50 49 48 44 40 39 38 37 37 39 41 42 44 47 50 53 55 57 58 58 57 56
65 65 64 63 62 59 59 60 61 59 57 57 57 57 56 55 54 54 53 54 54 53 53 54 55 56 57 58 58 58 58 58 59 60 61 64 67 70 70 70 70 72 72 73 74 75 75 75 76 77 78 79 80 80 81 83 84 84 81 75 68 62 58 56 52 47 45 45 42 39 37 37 36 36 37 40 42 45 48 52 55 56 57 58 57 56 55
68 67 67 66 63 61 62 63 62 60 58 58 58 58 58 57 56 55 56 57 57 55 55 56 57 58 59 60 61 61 60 61 61 62 63 66 69 72 72 72 72 73 73 74 75 76 76 77 78 78 79 80 81 81 83 84 85 84 79 73 66 61 56 54 51 45 41 41 40 38 36 35 35 35 36 39 43 46 51 54 55 56 57 57 56 55 55
70 70 70 68 64 63 64 65 65 63 60 58 57 59 59 57 57 57 58 58 58 57 57 57 58 59 61 62 62 62 62 63 64 64 65 68 71 73 74 74 74 74 75 75 76 77 77 78 79 79 80 80 81 82 84 85 85 83 78 71 65 60 56 53 49 44 39 38 38 37 35 33 33 34 36 39 43 48 53 55 56 56 57 56 55 54 54
69 71 71 68 65 65 66 67 66 64 61 59 59 60 59 58 59 60 60 59 59 58 59 60 60 61 62 63 63 63 64 65 66 66 67 69 72 75 76 77 77 76 76 77 78 79 79 80 81 81 81 81 81 83 85 86 85 82 76 70 65 60 55 52 50 45 40 37 37 36 34 32 32 33 35 40 45 50 55 57 57 57 57 56 55 54 53
68 69 68 67 66 66 67 68 67 65 62 61 61 60 60 60 60 62 63 62 61 60 61 62 62 63 65 65 65 65 65 67 68 68 69 70 73 76 77 78 78 78 78 78 79 80 81 83 84 84 84 83 84 85 87 88 86 81 75 69 64 60 56 52 49 46 41 38 36 35 33 32 32 33 36 40 46 52 56 59 59 58 57 56 54 53 52
70 68 67 66 65 64 66 68 68 66 64 63 62 62 62 62 62 63 64 64 63 63 63 64 64 66 67 67 67 67 67 68 69 69 70 71 73 75 76 77 79 79 79 80 81 82 83 84 85 86 86 86 87 87 89 89 87 81 74 68 63 59 56 51 48 46 42 37 35 34 33 31 32 34 37 42 47 53 58 59 59 58 57 55 54 52 51
72 70 68 66 63 63 65 67 66 64 63 62 63 64 65 64 64 63 64 64 64 64 64 65 66 67 67 67 67 67 68 69 70 70 70 71 73 74 75 77 79 81 81 81 81 83 84 85 86 86 87 88 88 89 90 90 86 80 73 67 62 58 56 52 49 47 43 37 34 33 32 31 32 35 38 43 48 53 58 59 59 58 58 56 54 52 50
73 71 69 67 64 64 65 66 65 64 62 61 62 64 66 66 66 65 65 65 65 65 66 67 67 67 67 67 68 69 69 70 71 72 72 72 73 74 75 76 79 81 81 81 81 83 84 85 85 86 87 88 89 90 90 88 84 77 71 66 61 58 56 53 51 48 43 37 33 32 31 31 33 35 40 44 47 52 57 59 59 59 59 58 57 54 51
74 72 70 68 65 65 66 65 64 64 63 62 63 64 65 66 67 66 66 66 67 68 68 69 69 68 68 68 69 70 71 73 74 74 75 74 74 75 76 77 79 81 81 81 82 83 84 85 86 86 87 89 91 91 89 85 80 74 69 65 61 57 55 54 51 48 43 37 33 31 30 31 33 36 41 45 47 50 55 58 59 60 59 59 59 57 54
75 73 72 69 65 65 65 65 64 63 63 63 63 65 66 67 67 67 67 68 69 69 70 70 70 70 70 71 71 72 73 74 75 76 76 76 76 76 77 78 80 82 82 82 84 85 86 87 88 88 88 89 91 90 87 82 77 71 66 63 59 55 53 53 51 48 43 38 34 31 29 30 34 37 41 45 48 50 55 58 59 59 59 58 59 58 56
76 74 72 70 67 66 66 64 63 63 63 63 64 65 66 66 67 67 69 70 71 71 71 71 71 72 72 73 73 74 75 75 76 76 76 77 77 78 79 80 81 83 84 84 86 87 88 89 90 89 89 89 89 87 83 78 74 69 65 61 56 52 51 51 50 47 43 39 35 31 29 29 33 38 41 46 50 52 55 57 58 59 59 58 59 59 58
76 73 71 69 67 66 64 63 62 62 63 65 66 65 65 66 67 69 70 71 71 71 71 72 73 73 74 75 75 76 77 77 78 78 77 78 79 80 81 82 83 84 85 86 88 89 90 91 92 91 90 88 87 84 79 75 72 68 63 57 52 48 48 49 48 46 42 38 34 31 30 29 32 37 41 46 51 53 55 57 58 59 59 58 59 60 60
74 71 69 67 66 64 63 62 63 63 64 65 66 66 66 68 69 70 71 72 72 72 72 73 74 75 76 76 77 78 79 79 80 80 80 81 82 83 83 84 85 86 86 87 88 90 91 93 93 92 90 88 85 82 78 74 71 67 61 55 48 45 45 46 46 45 42 38 33 31 31 30 31 36 41 45 50 54 55 57 59 59 59 59 59 60 61
72 70 67 66 65 64 63 62 63 63 64 65 66 67 68 69 70 71 72 73 73 73 73 73 75 76 77 78 78 79 80 80 81 81 82 83 84 85 86 86 86 87 87 88 89 90 92 94 94 93 91 88 83 80 76 73 70 67 61 54 47 43 43 44 44 43 41 37 33 30 31 31 30 34 41 44 48 52 55 56 58 59 58 57 58 59 60
72 70 67 66 65 64 63 62 62 63 64 65 66 68 70 71 72 72 73 74 74 73 73 74 76 78 79 80 80 80 80 81 82 82 83 84 85 86 87 88 88 89 89 90 91 92 94 96 95 93 90 87 82 78 75 72 69 65 60 54 46 42 42 42 42 40 38 35 32 30 31 32 31 33 39 44 47 51 54 56 58 60 58 57 56 57 58
71 70 68 66 64 63 63 63 63 63 64 66 68 70 72 73 73 74 75 76 76 76 76 76 77 79 81 82 82 82 82 82 83 83 84 85 86 87 88 89 89 90 91 92 92 93 95 96 95 92 89 85 80 76 73 70 67 63 59 52 45 41 41 42 40 38 36 33 31 30 30 31 32 32 36 42 46 49 53 56 58 60 60 58 56 55 56
70 69 68 66 65 64 63 63 63 65 67 68 69 71 73 74 74 75 76 77 78 79 79 79 80 81 82 82 83 83 84 84 85 85 86 87 88 89 90 90 91 91 92 93 93 94 95 96 94 90 86 82 77 73 70 67 64 61 56 50 45 41 41 41 39 36 34 31 30 30 30 30 31 32 34 39 43 47 52 56 58 61 62 60 57 55 55
69 68 67 66 66 66 65 65 66 69 70 71 72 73 75 76 77 78 79 79 80 81 82 82 83 83 83 83 84 85 85 86 86 87 88 88 89 91 92 92 93 93 93 94 94 95 95 95 92 88 84 79 74 70 66 64 61 58 54 49 44 41 40 40 39 36 32 30 29 29 29 29 30 31 32 35 40 44 49 54 58 61 63 63 59 56 55
69 68 67 68 69 69 68 69 71 73 73 74 75 77 79 80 80 80 81 82 83 84 84 84 85 85 85 85 86 87 87 88 88 89 89 90 91 92 93 94 94 95 95 95 96 95 94 92 90 86 81 77 72 67 63 60 58 55 51 47 43 41 39 38 38 36 32 30 29 29 29 29 29 30 32 33 36 40 45 50 55 59 63 64 63 60 57
70 69 70 72 72 71 72 73 74 75 75 77 79 81 82 83 83 83 83 84 84 84 85 86 86 87 87 88 88 88 89 90 91 91 91 92 93 94 94 95 95 96 97 97 96 95 92 89 88 84 78 74 71 65 60 58 56 52 47 43 41 40 39 38 38 36 32 30 29 29 29 29 29 29 31 32 34 37 41 45 50 55 59 63 65 64 61
73 72 74 75 75 75 75 76 76 77 79 81 83 85 86 86 85 85 85 85 85 85 85 86 87 88 88 89 90 90 91 91 91 92 93 94 95 96 97 97 97 98 98 98 96 92 89 87 85 81 75 71 68 63 58 56 54 51 47 41 39 39 40 39 38 36 33 31 31 29 29 30 30 29 30 31 33 35 37 41 46 50 54 58 62 64 65
78 77 78 79 79 78 79 79 80 81 82 84 86 88 88 87 87 87 87 86 86 86 87 87 88 89 90 91 91 92 93 93 94 94 95 96 97 98 98 99 100 100 99 97 94 90 87 85 81 76 72 68 64 60 56 53 52 50 47 43 40 40 40 39 39 37 34 33 32 30 29 30 30 31 30 30 32 34 36 39 42 47 51 54 57 60 63
82 82 83 83 82 81 81 82 83 84 85 87 90 91 89 88 88 88 89 88 88 88 88 89 90 90 91 92 93 94 95 96 97 97 98 99 100 100 100 101 101 100 98 95 90 86 83 80 75 69 66 64 60 57 54 52 51 49 46 44 43 43 42 40 39 37 35 34 33 31 30 31 32 32 31 29 30 33 36 38 41 45 49 51 53 55 59
86 87 87 86 85 84 84 85 86 87 88 90 92 92 90 89 89 91 91 90 90 90 90 90 91 91 93 94 95 96 97 98 99 100 101 101 102 102 102 102 101 99 95 91 86 81 77 73 68 64 61 59 56 54 51 50 49 49 47 45 45 46 45 43 41 39 37 35 34 32 32 32 33 32 31 29 28 30 33 37 40 43 47 51 52 53 54
90 91 90 87 86 86 87 88 88 88 89 92 93 92 90 90 92 93 93 92 91 91 91 92 92 93 94 95 96 97 98 100 101 102 103 103 103 103 102 101 98 95 91 86 81 76 71 66 62 58 55 53 52 51 49 47 48 50 49 48 47 47 47 46 44 42 39 37 35 34 33 33 33 32 30 29 28 28 30 33 37 41 45 50 53 54 54
94 93 91 88 87 88 89 90 90 90 91 93 93 92 91 93 94 95 95 94 94 93 94 94 95 96 96 97 98 98 99 101 102 103 104 105 104 103 101 98 94 90 86 80 75 70 63 58 55 52 51 50 49 47 46 47 48 50 51 50 49 49 49 49 47 45 42 38 36 34 33 33 33 32 31 29 28 28 28 29 32 36 41 47 52 56 57
96 96 92 90 90 91 91 91 92 92 92 92 93 93 94 95 96 96 96 96 96 96 96 97 98 98 98 99 99 100 101 102 103 105 105 105 104 102 99 94 89 85 80 75 69 63 56 48 42 40 41 45 47 46 46 48 50 51 51 51 51 51 52 50 48 46 44 40 36 34 33 33 33 32 32 31 30 29 28 27 29 32 36 41 47 53 58
97 96 94 93 94 94 93 93 94 94 93 93 93 95 96 96 97 98 97 97 97 98 98 99 99 99 100 100 101 101 102 103 104 105 105 104 102 99 95 90 85 80 75 68 62 57 51 43 35 34 37 42 45 45 45 49 52 51 50 50 50 52 52 50 46 45 44 41 38 36 35 35 34 34 33 33 33 32 31 29 28 29 32 36 40 46 53
98 96 96 96 96 96 95 95 96 95 94 94 95 96 96 97 98 98 98 98 99 100 100 101 101 100 100 101 101 101 102 103 104 104 104 101 98 93 89 86 81 74 68 62 57 54 50 44 42 46 48 47 46 45 45 49 52 52 51 51 52 54 54 51 46 44 44 42 39 38 38 37 36 34 34 35 36 35 35 34 32 32 32 33 36 40 46
99 97 97 97 97 97 98 98 97 96 95 95 96 97 97 98 99 99 99 100 101 101 101 101 101 101 101 101 101 101 102 102 102 102 100 97 93 88 84 80 74 67 61 56 53 52 50 47 48 53 54 50 47 46 47 50 52 53 54 54 55 57 57 53 47 44 43 43 42 41 41 39 37 36 36 37 38 39 39 38 38 37 36 36 37 39 41
100 99 99 99 98 99 99 99 98 97 97 97 97 98 99 99 99 100 101 101 101 101 101 101 100 100 100 100 100 100 100 100 99 98 95 90 86 82 78 72 65 58 54 52 51 50 50 50 52 55 55 52 50 48 49 50 53 55 56 56 55 55 54 50 45 44 44 44 43 43 43 42 40 39 39 41 42 42 43 43 42 42 42 42 42 42 43
101 101 101 101 100 101 101 99 98 98 98 98 98 99 99 99 100 101 101 101 101 100 100 99 99 98 98 98 98 97 96 95 93 91 88 83 79 74 69 63 56 51 50 50 50 50 51 52 54 56 56 55 53 52 51 53 55 56 57 56 54 50 47 44 44 45 45 44 44 44 45 44 43 43 43 44 45 46 46 46 46 46 46 46 47 47 48
101 102 102 102 102 102 101 99 98 98 98 98 98 98 99 100 101 101 100 100 99 98 97 97 96 95 94 94 93 91 90 88 86 84 80 75 70 64 59 54 50 48 47 48 49 50 52 54 55 56 56 56 55 54 54 56 57 56 55 54 51 47 44 43 45 47 46 45 45 45 45 46 46 46 47 48 48 49 49 49 48 49 49 49 49 49 50
100 100 100 100 100 99 98 97 97 97 97 97 97 98 98 99 99 98 98 97 96 95 93 92 91 90 89 87 86 84 82 81 79 76 71 67 62 56 51 46 44 43 44 45 46 49 52 55 56 56 57 57 56 56 56 56 55 54 52 51 49 46 43 43 46 48 48 48 47 47 47 48 49 50 51 52 52 53 53 52 52 51 51 50 50 51 51
97 97 97 96 95 94 94 94 94 94 94 94 95 95 95 95 94 93 93 92 91 90 89 87 85 83 81 79 78 76 76 75 73 69 64 60 55 51 46 41 39 38 40 41 42 45 50 54 56 57 57 58 58 58 56 55 53 52 50 49 48 46 45 46 48 50 51 51 50 50 50 51 53 54 55 56 56 57 57 56 55 54 53 52 51 51 52
91 91 90 90 90 89 89 89 89 89 89 90 90 90 89 88 87 87 87 86 85 84 82 80 78 76 74 73 72 71 71 70 68 64 59 54 49 44 40 38 36 36 36 36 37 40 45 50 54 56 57 58 58 57 55 54 52 51 49 48 47 47 48 49 51 52 54 54 54 54 55 55 56 57 58 59 59 59 59 58 57 56 55 54 54 53 53
82 83 83 83 83 83 82 82 82 83 83 84 84 83 83 82 82 81 80 79 78 76 75 74 73 71 70 68 67 66 66 65 63 59 54 48 43 38 35 34 34 35 35 34 35 37 39 43 46 49 51 53 54 53 51 51 50 49 48 48 48 49 50 52 53 53 55 56 56 56 57 58 58 59 60 60 61 61 61 61 61 60 59 59 58 58 58
73 73 73 73 74 74 75 75 75 76 76 76 77 77 77 76 76 75 74 73 72 71 70 69 67 65 63 62 61 60 60 58 55 51 48 43 39 35 32 31 32 33 34 35 35 36 36 37 38 40 42 43 45 46 46 47 48 48 48 49 50 50 52 53 54 54 55 56 57 58 58 59 60 61 61 62 63 64 64 65 65 64 64 64 63 63 63
61 61 61 63 64 65 66 67 67 68 69 69 70 71 70 70 70 71 70 69 68 66 63 61 59 58 57 56 56 55 54 51 48 45 42 39 36 33 32 31 30 31 32 33 34 34 35 35 36 37 38 39 40 41 42 44 45 46 47 49 51 52 53 54 56 57 57 58 59 60 61 62 63 64 65 65 66 67 68 68 67 67 67 67 67 66 65
49 50 51 53 54 55 56 58 59 61 62 63 64 65 65 66 67 67 66 64 63 61 59 58 56 55 54 53 53 51 49 46 43 40 38 37 35 33 31 30 29 29 30 32 33 33 34 34 35 37 38 38 39 39 40 41 42 43 44 46 49 50 52 53 55 56 57 57 58 59 60 62 63 64 65 66 66 66 66 66 66 66 66 66 65 65 64
40 41 42 44 45 47 49 51 53 55 57 58 59 60 61 62 62 62 61 60 59 58 57 56 54 52 51 50 50 48 45 43 41 38 36 35 34 33 31 30 29 29 30 32 32 33 34 34 36 38 39 39 40 41 41 42 42 43 44 46 47 48 50 51 53 55 55 56 56 57 58 59 60 61 62 63 63 63 62 62 62 61 61 61 61 61 60
33 34 36 38 39 42 44 46 49 51 52 54 55 56 56 57 57 56 56 56 55 54 52 51 50 49 48 48 47 45 42 40 39 37 35 34 33 32 31 30 29 30 31 32 34 34 35 36 37 38 39 41 42 43 44 44 44 45 47 48 48 49 51 53 54 56 57 57 57 57 58 58 59 59 59 59 59 59 59 58 58 57 57 57 58 58 58
29 31 32 34 36 38 40 42 45 47 49 50 51 52 52 52 52 52 51 50 49 47 46 46 46 46 46 45 44 42 40 39 38 37 35 33 33 32 32 31 31 31 33 34 36 36 37 37 37 38 39 41 43 44 45 45 45 47 48 48 48 49 51 53 54 55 56 57 57 56 57 57 57 58 58 58 58 58 58 58 59 59 59 59 59 59 59
27 29 31 33 35 37 38 40 42 44 46 47 48 48 49 48 48 47 46 44 43 43 44 44 44 44 44 43 42 39 38 37 36 36 35 33 32 32 32 32 32 33 35 36 37 38 38 37 38 38 40 42 44 44 44 45 45 46 47 47 47 48 49 50 52 53 54 55 55 56 56 56 57 58 58 59 60 60 60 61 61 61 61 61 61 62 61
27 28 30 32 33 35 36 38 40 42 43 44 44 44 44 43 41 40 39 39 40 41 42 43 43 43 43 42 40 38 35 34 33 33 34 33 32 32 32 32 33 34 36 38 40 41 40 39 39 40 42 44 44 44 44 44 45 45 46 45 45 46 47 48 50 51 52 53 55 56 56 57 58 59 59 60 60 60 60 61 61 61 61 61 61 61 61
27 28 29 29 30 31 33 35 37 38 38 37 37 36 36 35 34 35 36 37 39 41 42 42 41 40 39 38 36 35 34 32 31 31 31 31 31 31 32 32 33 34 36 38 41 42 40 39 38 39 41 42 42 42 42 42 43 45 46 46 46 47 48 49 50 51 53 54 55 56 57 58 58 59 59 59 59 59 60 59 59 59 59 59 58 58 58
27 27 26 27 28 29 30 32 32 32 31 31 31 31 31 31 32 34 36 37 38 39 39 38 37 36 34 33 32 32 32 31 30 30 30 30 31 31 32 33 33 34 35 37 40 41 40 38 38 38 40 41 41 42 42 43 44 46 47 48 48 49 50 51 52 53 54 54 55 56 57 57 57 57 57 57 57 57 56 56 55 55 55 55 55 55 55
25 25 25 26 26 27 28 28 27 27 28 29 30 30 30 31 32 33 33 33 34 34 34 34 33 32 31 31 30 30 30 30 30 30 29 29 30 31 31 32 32 33 34 36 38 40 40 40 40 41 42 43 44 45 46 46 47 49 50 50 51 51 51 51 52 52 53 53 54 54 54 54 54 53 53 52 52 52 52 52 52 53 53 53 53 53 52
Wind_Direction
296 297 297 300 303 304 302 300 298 299 299 298 299 302 302 301 300 298 299 302 299 297 298 299 299 300 299 299 300 302 303 303 304 305 307 308 308 309 311 313 315 316 316 316 318 319 319 320 320 320 320 319 319 320 321 321 321 322 322 322 320 317 313 310 305 300 298 297 295 291 286 282 277 273 270 266 262 256 251 244 236 230 227 224 223 222 220
293 293 295 299 301 301 300 299 297 297 296 296 299 301 299 298 298 297 296 296 294 293 293 294 295 295 295 296 297 299 300 300 302 304 306 307 308 309 311 313 315 317 317 317 319 320 319 319 320 320 320 320 321 322 322 322 322 323 323 323 321 318 313 309 305 300 297 296 295 290 285 280 276 272 268 265 260 253 247 239 231 227 225 224 223 222 220
290 293 296 298 297 298 298 297 296 296 297 297 298 296 295 296 297 296 295 294 293 291 291 292 293 294 294 295 297 298 299 300 302 304 305 307 308 309 311 314 316 317 317 318 320 319 318 319 320 320 320 321 322 322 323 323 324 324 324 324 322 319 314 310 306 301 297 295 294 290 283 278 273 270 266 262 256 249 242 234 228 225 223 224 224 223 221
290 292 295 296 296 297 296 294 294 296 298 297 296 294 295 296 296 295 296 295 293 292 292 293 294 295 296 297 298 298 299 301 302 304 306 308 309 310 312 315 317 318 318 318 319 318 318 320 321 321 321 321 322 323 324 324 325 325 325 324 323 319 315 311 307 303 297 294 293 290 283 276 271 267 263 258 251 244 237 231 227 223 222 223 224 224 222
290 291 293 294 295 295 294 293 295 296 295 294 293 293 295 295 294 295 295 294 293 293 294 295 295 296 298 298 298 299 300 301 303 305 308 310 310 311 314 316 318 318 318 318 318 319 320 321 321 321 321 322 322 323 325 325 325 325 325 324 323 320 316 313 310 305 298 294 292 289 283 275 268 264 258 253 246 239 233 229 225 222 221 222 222 223 223
290 291 292 293 295 294 292 293 294 293 292 292 292 292 292 293 293 293 293 292 293 293 293 294 295 296 297 297 298 299 301 303 305 307 310 311 311 313 315 316 317 317 317 318 318 319 320 320 320 321 322 322 323 324 325 326 325 326 326 324 323 321 317 313 312 309 301 296 293 289 282 273 265 259 254 248 241 235 230 228 224 222 220 220 221 222 224
290 291 292 293 294 292 291 291 292 293 293 292 290 289 290 291 291 290 289 290 291 292 293 293 294 294 295 296 298 300 303 304 306 308 310 311 312 313 315 316 316 316 317 318 318 318 319 320 320 321 321 322 323 324 325 326 325 325 326 324 322 320 318 313 311 310 305 299 294 288 281 272 263 255 248 243 236 231 229 227 224 220 219 218 219 222 223
288 289 291 292 292 290 289 290 292 293 293 290 289 288 289 289 288 287 287 288 290 291 292 292 293 294 296 297 299 301 302 304 306 309 311 312 313 314 315 315 316 316 317 318 318 318 319 319 319 319 320 322 324 325 325 326 325 325 325 324 321 319 318 313 309 307 305 301 295 289 282 273 261 250 244 238 232 228 228 227 224 220 218 218 220 221 223
284 285 287 289 289 289 289 289 291 292 291 290 289 288 288 288 287 287 288 290 291 292 293 293 295 296 297 297 299 301 303 305 307 309 311 312 313 314 315 315 315 315 316 317 318 318 318 318 318 319 321 322 324 325 326 325 325 324 323 322 320 319 317 314 309 307 305 303 297 289 282 273 261 248 239 234 230 227 228 229 225 221 219 219 219 220 222
283 283 283 285 286 287 286 287 290 291 290 290 289 287 287 287 286 287 288 290 292 293 293 294 296 296 296 298 300 302 303 305 307 309 311 312 312 313 314 314 314 314 315 317 317 317 317 317 317 319 321 322 324 324 325 325 324 323 322 321 320 318 315 313 310 307 307 304 298 290 282 272 261 248 237 231 229 227 229 231 228 224 220 219 218 220 222
283 283 283 284 284 283 283 284 286 287 287 287 286 286 286 286 286 286 287 288 290 291 291 292 292 293 295 298 299 301 303 304 306 308 310 310 311 312 312 313 314 314 314 315 316 316 316 316 317 319 320 321 322 323 323 324 323 322 320 319 319 317 313 311 309 308 307 304 298 292 283 271 259 247 237 231 229 227 229 232 231 226 222 219 217 218 221
282 282 283 284 284 283 282 283 283 283 283 283 283 283 284 284 285 285 286 286 288 288 289 289 290 292 295 297 299 300 302 304 305 307 309 310 311 311 312 313 313 312 313 314 315 315 315 316 317 318 319 321 321 322 323 323 322 321 319 319 319 316 312 310 308 307 307 304 298 292 284 270 257 245 236 231 229 228 228 231 232 230 224 220 218 219 220
281 282 282 283 283 282 281 282 282 282 283 282 282 281 282 282 283 284 285 286 287 288 288 289 291 294 296 297 299 301 303 305 307 309 310 310 311 311 311 312 312 312 313 315 315 315 315 316 317 318 320 321 321 321 322 321 320 319 318 318 318 315 311 309 308 307 306 303 297 290 282 269 256 244 236 231 229 228 227 230 233 232 228 223 220 219 220
280 281 282 282 281 280 279 280 281 281 282 282 281 280 281 282 283 285 286 287 287 288 290 292 294 296 297 298 300 302 304 305 307 308 309 309 310 310 311 312 312 313 314 315 315 315 316 317 317 319 320 321 320 321 321 320 319 318 318 317 316 313 309 307 306 306 306 303 297 289 280 267 255 244 235 229 227 227 227 229 232 233 231 225 221 219 220
279 280 281 281 280 280 280 280 281 281 281 280 279 280 281 282 284 285 286 287 288 289 291 293 295 296 297 298 300 301 303 304 305 306 307 308 308 309 311 312 313 314 315 315 316 316 317 317 318 319 321 320 320 320 319 318 317 316 317 317 314 309 306 304 304 304 304 302 296 288 279 267 254 244 235 228 226 226 227 230 232 234 232 227 221 219 219
278 279 280 280 280 280 280 280 279 279 279 279 279 280 281 282 283 283 284 286 287 290 291 293 294 295 297 298 300 301 303 304 304 305 306 307 308 309 311 312 313 314 315 316 316 316 317 317 317 319 320 319 319 318 317 316 315 315 315 316 312 307 304 303 302 302 302 300 294 285 278 268 254 245 237 230 225 225 226 229 231 234 234 230 224 220 219
278 279 279 279 278 277 277 277 277 278 278 279 280 281 281 282 282 283 284 286 287 289 291 292 294 295 296 298 299 301 302 304 305 306 307 308 309 310 311 312 313 314 315 315 315 316 316 316 317 319 319 318 317 317 316 315 314 313 314 315 310 305 303 301 300 301 300 297 292 284 277 271 257 245 239 233 228 225 225 227 230 232 234 232 227 222 219
278 277 277 276 275 275 276 276 276 277 277 278 279 280 281 281 282 283 284 286 287 288 290 291 292 294 295 297 299 301 303 304 305 306 307 308 309 310 311 312 313 314 314 314 314 315 315 315 316 318 318 317 316 315 314 314 313 312 313 314 310 305 302 301 300 301 299 294 289 283 276 271 260 245 239 235 231 228 226 225 227 230 232 232 230 225 220
276 276 275 275 275 275 276 275 275 276 277 278 279 279 280 281 282 283 284 285 287 288 290 291 293 295 297 298 300 301 302 303 304 305 306 307 308 309 311 312 313 313 313 313 314 315 314 315 316 317 316 316 315 314 313 312 312 311 312 313 310 305 303 302 301 301 299 293 287 282 276 271 262 247 238 235 233 230 228 225 224 227 229 230 230 226 221
275 276 276 276 275 276 276 276 276 277 277 277 278 279 280 281 283 284 285 287 288 289 291 293 294 296 297 298 299 300 301 302 303 304 306 307 308 309 310 311 312 312 312 313 313 314 314 314 315 316 315 315 315 313 312 311 310 310 311 311 308 305 304 303 301 301 299 293 286 283 278 271 263 250 238 234 233 231 229 227 224 225 227 228 228 227 222
275 276 276 276 276 276 276 277 277 278 277 277 277 279 280 282 283 285 286 288 290 291 293 294 296 296 297 298 299 300 301 302 303 305 306 307 308 309 309 310 310 311 311 312 312 313 313 313 314 314 314 314 313 312 310 309 308 308 309 309 307 305 305 303 301 300 299 292 284 282 279 272 263 254 241 234 233 232 231 229 226 225 226 227 227 226 222
274 275 276 277 277 277 278 279 279 279 278 279 281 282 283 284 285 286 288 289 291 293 294 295 296 296 297 298 299 300 301 302 303 304 306 307 307 308 308 309 310 310 310 311 311 312 313 313 313 313 313 312 311 309 308 307 306 306 308 307 306 306 306 304 300 299 298 292 286 282 278 269 262 257 248 237 233 232 231 231 228 226 226 228 227 225 223
273 275 276 276 277 277 278 279 279 279 280 282 284 284 284 285 286 288 289 291 292 294 295 296 297 297 298 298 299 300 301 302 303 304 305 306 307 307 308 309 309 309 310 311 311 312 312 312 312 312 312 310 308 307 306 305 303 303 304 304 304 306 308 305 301 300 298 294 289 283 277 268 260 258 255 246 237 232 232 232 231 229 228 228 228 227 224
272 273 275 275 276 277 278 278 278 280 282 283 284 284 285 285 287 288 290 291 293 294 295 296 297 297 298 298 299 300 301 302 303 304 305 306 306 307 307 308 308 309 310 311 311 312 312 311 311 310 309 307 306 306 304 302 301 300 300 300 302 305 308 306 304 302 299 295 290 284 278 270 262 258 258 254 246 237 233 233 234 232 230 230 230 229 226
272 273 274 275 276 276 277 278 280 281 283 284 284 285 285 286 288 289 291 292 293 294 294 295 296 297 297 298 299 300 301 302 303 303 304 305 306 306 307 308 309 309 310 311 311 311 311 310 309 308 305 304 304 304 302 300 298 297 297 298 301 304 307 307 305 303 300 295 289 283 278 273 267 262 259 257 254 246 238 234 234 235 234 232 231 230 229
272 273 274 274 275 276 277 279 280 282 283 284 284 284 285 287 289 290 291 291 292 293 293 294 295 297 297 298 299 300 301 301 302 303 304 305 306 306 307 308 309 310 310 310 310 310 310 309 307 304 302 302 302 300 299 297 296 295 296 297 300 303 305 306 305 301 297 292 287 282 277 274 270 267 264 260 257 253 246 239 235 235 236 235 234 232 231
273 274 274 274 275 276 278 279 281 282 282 283 284 284 286 288 289 290 290 291 292 293 294 295 296 297 298 299 299 300 301 301 302 303 304 305 306 307 308 309 309 310 310 310 310 309 308 306 303 300 299 299 298 296 295 293 292 293 294 295 298 301 303 305 303 297 291 286 282 277 274 272 271 270 268 264 260 256 251 246 240 236 236 236 236 235 233
272 273 274 275 276 278 280 280 281 282 283 283 284 285 287 289 290 290 290 291 292 293 294 296 297 297 297 298 299 300 301 302 303 304 304 305 306 307 308 309 310 310 310 309 309 308 307 303 300 297 296 294 293 291 291 290 290 291 292 292 294 298 301 302 301 295 287 281 276 273 270 268 269 270 270 268 264 259 254 249 244 239 236 235 236 236 235
272 272 274 275 277 279 280 280 281 282 283 283 284 286 288 289 289 289 289 291 292 293 294 294 295 295 296 297 298 300 301 302 302 303 304 305 306 307 308 309 309 309 309 308 307 306 304 300 297 295 293 290 289 288 288 287 287 287 288 289 291 295 298 300 298 292 285 278 273 269 266 265 267 269 270 269 267 262 257 252 248 243 239 236 235 235 236
273 273 274 276 277 278 279 279 280 281 282 283 285 286 287 287 287 288 289 290 291 292 292 293 294 294 295 297 299 300 300 301 302 303 303 305 306 307 308 308 308 308 307 306 305 303 300 296 294 292 288 284 284 284 284 282 282 282 284 286 287 289 293 296 294 289 283 278 271 265 262 262 264 267 269 269 267 264 259 254 250 246 242 239 237 235 235
273 274 276 276 277 277 278 279 280 280 281 282 284 285 285 286 287 288 289 290 291 292 292 293 294 295 297 298 299 300 300 301 301 302 303 305 306 307 307 307 307 306 305 304 302 299 294 290 288 285 280 277 277 278 278 277 277 279 282 283 283 284 287 290 290 286 281 276 269 261 257 257 259 263 266 268 268 266 262 257 252 248 244 242 240 237 236
273 274 276 276 276 277 278 278 279 280 281 282 283 284 285 286 286 287 289 290 291 291 292 293 294 296 297 298 299 299 300 300 301 302 303 305 306 306 306 306 305 304 303 301 298 293 287 281 273 269 269 272 275 275 272 271 274 278 281 282 283 283 285 286 286 283 277 271 264 257 254 253 255 260 264 266 267 267 265 261 257 253 248 244 242 240 238
272 273 275 275 276 277 278 278 278 280 281 282 282 283 284 285 286 287 288 289 289 290 291 292 294 295 296 297 297 298 299 300 301 302 303 304 304 305 304 304 304 303 301 297 292 287 282 273 263 261 266 271 274 274 270 269 273 279 283 283 283 283 283 285 284 279 272 265 259 255 254 254 256 259 261 262 262 263 263 262 260 258 255 251 247 244 242
272 273 274 275 276 276 277 277 278 279 280 281 281 282 283 284 285 286 287 287 288 289 291 292 293 294 295 296 297 297 298 299 300 301 302 303 303 303 302 302 301 300 296 292 286 281 277 270 264 265 269 272 273 273 272 271 274 279 282 282 281 280 280 281 279 273 265 259 254 252 252 253 255 257 258 259 260 260 261 261 261 260 258 257 254 251 247
272 272 273 273 274 274 275 276 277 278 278 279 280 281 282 283 284 284 285 286 288 289 290 291 292 293 294 295 296 297 298 299 299 300 301 302 302 301 301 300 298 294 289 285 280 275 272 268 266 268 271 273 273 274 273 272 274 278 280 281 279 277 276 275 271 266 260 255 251 250 250 251 253 256 258 259 260 260 261 261 261 260 259 258 257 255 253
270 271 271 271 272 272 273 274 276 276 277 278 279 280 281 282 282 283 284 286 287 288 289 290 291 293 294 295 296 297 298 299 299 300 301 301 301 300 299 297 293 288 282 278 273 269 267 266 266 267 269 271 273 274 273 273 276 279 280 279 278 275 272 267 262 259 256 252 249 249 250 251 254 256 258 259 260 260 260 260 260 259 259 258 257 257 257
268 268 269 269 270 271 272 273 274 275 276 277 278 279 279 280 281 282 284 285 286 287 289 290 291 293 294 295 296 297 298 298 299 300 301 301 300 299 297 294 290 286 280 275 269 265 263 262 264 266 268 269 271 272 273 276 279 280 279 277 276 272 267 261 256 254 252 249 248 248 250 252 254 255 256 258 259 259 259 259 259 259 258 257 257 256 256
266 266 267 267 269 270 271 272 272 273 274 275 276 277 278 279 281 282 284 285 286 287 289 290 292 293 294 295 296 297 297 298 299 299 300 300 299 297 294 291 288 285 280 274 269 265 262 261 263 264 266 268 270 273 276 278 278 277 276 275 272 268 262 257 253 252 250 248 248 249 250 252 254 255 256 257 258 259 260 260 261 260 259 258 257 257 256
264 264 265 266 267 268 269 270 271 272 273 274 275 276 277 279 281 282 284 285 286 288 289 291 292 293 294 294 295 296 297 297 298 298 300 300 299 296 293 289 285 281 278 275 272 267 262 261 262 263 264 266 269 273 276 278 278 276 275 273 269 264 259 255 252 251 249 248 248 250 251 253 254 255 256 257 258 260 261 263 264 264 264 262 260 259 258
263 263 264 265 265 266 267 269 270 271 272 273 274 275 277 279 280 282 283 285 287 289 290 291 292 292 292 293 294 295 296 296 297 298 300 300 298 295 292 289 286 282 279 277 273 267 262 259 260 261 262 265 267 270 273 276 276 275 273 270 266 262 258 255 253 252 250 249 250 251 252 253 254 255 256 258 260 263 265 266 268 269 269 267 266 264 263
261 262 263 264 265 266 267 268 268 269 270 272 274 275 277 278 280 281 283 285 287 289 290 291 291 291 292 292 293 294 294 295 297 298 299 299 296 293 291 288 285 282 280 277 272 269 266 263 262 261 262 263 265 267 270 271 272 272 270 268 266 263 260 258 257 255 254 254 255 256 257 258 259 259 260 262 264 266 268 270 271 272 272 271 270 269 267
261 262 263 263 264 264 265 266 267 268 270 271 273 275 277 278 280 282 283 285 287 289 290 291 291 291 291 291 292 293 294 296 297 298 298 297 296 293 290 287 282 279 277 275 274 273 272 270 268 266 265 264 265 266 267 268 269 268 267 266 264 263 261 260 260 259 259 260 261 262 263 264 265 266 267 267 268 269 271 272 273 274 273 273 272 271 270
261 261 261 261 261 262 263 265 266 268 269 271 273 275 276 278 280 282 284 285 287 288 289 289 291 291 290 291 292 294 296 297 298 298 297 296 296 294 290 287 283 280 278 277 277 277 277 275 272 269 267 266 266 267 268 268 268 267 266 265 264 264 263 263 263 264 264 265 266 267 268 269 269 270 271 271 271 271 271 272 273 273 273 273 273 273 273
259 259 258 259 260 261 262 264 265 267 269 270 272 274 277 279 281 282 284 285 286 286 286 287 289 290 291 292 294 296 297 297 297 297 296 296 296 294 290 286 283 280 277 276 276 276 277 276 274 271 270 270 270 271 271 271 271 271 270 269 268 268 268 268 268 268 268 268 268 268 269 269 269 270 271 271 271 272 272 273 273 273 274 274 275 275 275
255 255 256 256 258 259 261 263 265 267 269 271 274 276 278 280 282 283 284 284 285 285 285 285 287 289 291 294 296 297 297 296 296 296 295 295 294 292 290 287 283 279 276 276 275 276 275 275 274 274 273 274 275 275 275 274 274 274 273 273 273 273 273 273 273 273 273 273 272 272 272 272 273 273 273 274 275 275 276 276 276 276 276 275 275 275 274
251 252 254 256 258 260 263 265 268 270 273 275 278 279 281 281 282 283 283 284 284 285 285 285 287 289 292 295 297 297 295 294 294 294 293 292 290 288 287 286 284 281 279 277 276 275 274 273 272 273 274 274 275 275 275 275 275 275 275 275 275 276 276 276 277 278 278 279 279 279 279 280 280 280 280 280 280 280 280 280 279 278 278 277 276 275 274
252 255 257 259 262 264 266 269 272 275 277 279 281 282 282 283 283 283 283 283 284 285 285 286 287 290 293 295 297 295 293 292 292 292 290 288 287 286 285 285 285 284 282 281 279 278 277 277 276 277 277 276 276 275 276 277 277 277 277 277 278 279 279 280 280 281 282 282 283 283 283 283 284 284 284 284 283 283 283 283 282 282 281 280 279 278 276
256 259 261 264 266 269 272 274 277 278 279 280 281 282 283 283 283 283 282 283 284 285 285 286 287 290 292 294 294 293 291 290 290 289 288 287 286 286 285 285 285 285 284 283 282 282 281 281 281 281 280 279 279 279 280 281 281 281 282 282 283 283 283 283 283 284 284 284 285 285 285 285 285 284 284 284 284 283 283 283 283 282 282 282 281 280 280
262 265 268 271 273 275 276 278 278 279 279 280 281 281 281 282 282 282 283 284 284 284 284 286 288 290 291 292 291 291 290 288 287 287 287 287 287 287 286 285 285 285 285 284 284 283 283 284 284 284 283 283 284 285 286 286 286 286 286 286 286 285 285 285 285 285 285 285 285 285 285 284 284 284 284 283 283 283 283 283 283 283 283 283 282 282 281
270 272 275 276 277 278 278 277 277 277 278 279 280 280 281 282 284 284 285 285 285 285 286 288 289 289 290 289 289 288 288 287 286 285 285 285 286 286 286 285 284 284 284 284 284 285 286 287 287 286 286 286 287 288 288 288 288 288 288 289 289 288 288 288 287 287 287 287 286 286 286 286 285 285 285 285 285 285 285 284 284 284 284 284 283 283 283
276 279 281 282 282 282 280 278 278 278 279 279 279 280 282 284 286 286 286 286 287 287 288 288 288 288 288 287 286 285 285 286 286 286 287 287 288 287 288 288 289 289 289 289 289 290 292 293 293 292 292 292 292 292 292 292 291 291 291 292 292 291 291 290 290 289 289 289 288 288 288 287 287 286 286 286 286 286 285 285 285 285 285 285 285 285 284
283 286 288 289 288 287 285 284 283 283 283 283 283 284 286 287 287 287 287 287 288 288 289 289 289 289 288 287 286 285 286 286 287 288 289 289 288 288 289 290 291 292 291 291 292 292 294 296 296 295 295 295 295 295 295 295 294 294 293 293 293 292 292 291 291 291 290 290 290 289 289 289 288 288 287 287 287 287 287 288 288 288 287 287 287 286 286
Height
10900 10898 10898 10898 10898 10899 10900 10898 10895 10892 10889 10887 10888 10889 10888 10886 10885 10882 10880 10880 10879 10874 10870 10868 10867 10866 10863 10858 10856 10854 10852 10848 10845 10842 10840 10837 10833 10829 10827 10825 10822 10820 10816 10810 10806 10800 10794 10789 10785 10781 10776 10770 10764 10758 10753 10747 10741 10735 10731 10725 10719 10714 10707 10701 10694 10689 10686 10686 10684 10683 10682 10681 10679 10677 10675 10675 10676 10678 10679 10682 10685 10687 10689 10692 10696 10701 10705
10894 10893 10892 10892 10892 10892 10892 10890 10888 10886 10883 10881 10882 10883 10882 10881 10881 10879 10877 10877 10875 10871 10867 10865 10863 10861 10858 10855 10852 10851 10849 10845 10841 10839 10835 10832 10828 10824 10821 10818 10815 10812 10807 10802 10798 10792 10786 10782 10778 10772 10766 10760 10755 10749 10744 10738 10733 10727 10722 10716 10711 10705 10699 10693 10687 10682 10678 10677 10677 10675 10674 10673 10672 10670 10669 10668 10669 10671 10672 10675 10677 10680 10682 10685 10689 10693 10698
10887 10886 10886 10887 10887 10887 10886 10883 10881 10879 10877 10876 10876 10875 10874 10875 10876 10875 10873 10872 10870 10866 10863 10860 10857 10855 10853 10850 10848 10845 10843 10840 10837 10834 10830 10827 10823 10819 10816 10812 10808 10803 10798 10793 10790 10785 10780 10777 10772 10764 10758 10753 10747 10742 10736 10730 10724 10718 10712 10707 10702 10696 10691 10685 10680 10675 10671 10670 10670 10668 10667 10666 10665 10664 10663 10662 10663 10665 10666 10668 10671 10674 10677 10680 10683 10687 10692
10881 10880 10880 10880 10880 10881 10880 10876 10873 10872 10871 10869 10868 10867 10866 10867 10867 10866 10866 10864 10862 10859 10856 10852 10849 10847 10844 10842 10840 10838 10836 10834 10831 10828 10825 10821 10816 10811 10809 10806 10800 10794 10788 10784 10781 10778 10773 10769 10763 10757 10751 10746 10741 10735 10729 10722 10716 10710 10704 10699 10694 10689 10683 10678 10674 10669 10664 10662 10663 10662 10661 10660 10659 10658 10657 10657 10657 10658 10660 10662 10665 10669 10672 10675 10678 10683 10687
10874 10874 10875 10874 10875 10875 10871 10868 10867 10867 10865 10862 10860 10859 10858 10859 10859 10857 10856 10854 10852 10851 10848 10845 10841 10838 10836 10833 10831 10830 10829 10827 10824 10822 10818 10814 10808 10802 10800 10797 10792 10786 10781 10777 10772 10768 10764 10759 10755 10750 10745 10739 10733 10727 10721 10715 10708 10701 10696 10690 10686 10682 10676 10670 10667 10663 10658 10656 10656 10656 10655 10654 10653 10652 10652 10652 10652 10653 10654 10656 10659 10664 10667 10670 10675 10679 10683
10867 10867 10867 10868 10870 10867 10862 10860 10860 10861 10859 10857 10854 10851 10850 10851 10851 10850 10847 10844 10843 10843 10841 10838 10834 10831 10828 10825 10823 10822 10820 10818 10815 10813 10810 10805 10799 10793 10790 10788 10784 10779 10774 10770 10765 10760 10756 10752 10747 10743 10738 10732 10726 10721 10715 10708 10700 10693 10688 10683 10678 10674 10669 10664 10660 10657 10653 10651 10650 10650 10649 10648 10647 10647 10647 10647 10648 10648 10649 10651 10655 10659 10663 10667 10671 10674 10679
10860 10859 10858 10861 10862 10859 10853 10851 10852 10852 10853 10852 10848 10844 10843 10844 10843 10841 10839 10837 10836 10835 10833 10831 10828 10825 10821 10818 10815 10814 10812 10809 10807 10805 10802 10797 10790 10785 10781 10777 10774 10770 10766 10762 10757 10753 10749 10744 10740 10736 10732 10727 10721 10714 10708 10701 10694 10686 10681 10676 10671 10667 10663 10658 10654 10651 10649 10646 10645 10644 10643 10643 10642 10642 10642 10643 10644 10644 10644 10646 10650 10655 10658 10663 10667 10671 10675
10854 10851 10851 10853 10854 10850 10845 10843 10844 10845 10845 10844 10841 10837 10836 10837 10834 10831 10830 10830 10830 10828 10826 10823 10821 10817 10814 10811 10808 10807 10804 10801 10799 10797 10794 10789 10782 10776 10771 10767 10763 10760 10757 10753 10749 10744 10740 10735 10731 10728 10725 10720 10714 10707 10699 10693 10686 10680 10674 10669 10664 10660 10657 10652 10648 10645 10643 10641 10640 10638 10637 10637 10636 10636 10637 10638 10640 10640 10640 10642 10646 10651 10655 10659 10663 10668 10671
10849 10846 10847 10847 10845 10843 10838 10834 10835 10838 10837 10835 10833 10830 10828 10828 10825 10821 10819 10820 10820 10820 10817 10814 10811 10808 10804 10802 10800 10799 10797 10793 10790 10788 10785 10781 10775 10770 10765 10760 10755 10752 10749 10746 10741 10736 10731 10727 10722 10718 10714 10710 10705 10699 10691 10684 10677 10671 10667 10662 10657 10653 10650 10646 10642 10639 10637 10635 10634 10632 10631 10631 10631 10631 10632 10634 10635 10636 10636 10637 10642 10647 10651 10656 10660 10664 10668
10843 10841 10842 10842 10841 10838 10832 10827 10828 10830 10828 10826 10824 10821 10820 10819 10817 10813 10811 10810 10810 10809 10807 10805 10802 10799 10796 10794 10793 10791 10789 10786 10783 10781 10779 10775 10770 10765 10760 10754 10749 10745 10742 10739 10734 10729 10725 10719 10713 10708 10703 10699 10694 10689 10683 10676 10669 10663 10659 10655 10652 10647 10643 10640 10636 10633 10631 10629 10628 10626 10625 10625 10625 10626 10627 10628 10630 10631 10632 10633 10637 10643 10647 10652 10657 10661 10664
10834 10833 10834 10836 10836 10833 10827 10823 10823 10824 10823 10820 10816 10813 10811 10810 10809 10808 10806 10804 10802 10801 10800 10799 10796 10793 10791 10790 10788 10785 10783 10780 10777 10776 10774 10770 10766 10761 10756 10750 10743 10738 10735 10733 10729 10723 10718 10711 10705 10700 10696 10691 10686 10681 10676 10669 10662 10656 10651 10647 10645 10641 10636 10634 10630 10627 10626 10624 10621 10620 10619 10619 10619 10620 10621 10623 10625 10627 10628 10629 10633 10638 10643 10648 10652 10656 10659
10824 10825 10826 10828 10828 10825 10820 10818 10817 10817 10817 10816 10811 10807 10804 10802 10801 10801 10799 10798 10796 10794 10793 10791 10789 10787 10787 10785 10782 10779 10776 10773 10770 10768 10766 10763 10759 10754 10750 10745 10739 10733 10730 10728 10723 10717 10711 10705 10699 10694 10689 10684 10678 10673 10668 10661 10655 10649 10644 10640 10637 10634 10630 10627 10624 10621 10619 10618 10616 10614 10613 10613 10613 10614 10615 10617 10620 10623 10625 10626 10628 10632 10637 10642 10647 10651 10655
10815 10816 10818 10820 10820 10816 10812 10811 10810 10808 10809 10809 10806 10802 10798 10795 10794 10793 10792 10790 10788 10786 10784 10782 10780 10780 10780 10777 10774 10771 10768 10764 10760 10758 10755 10753 10749 10746 10743 10739 10733 10727 10723 10720 10714 10708 10702 10696 10691 10686 10682 10675 10668 10662 10658 10653 10647 10642 10637 10633 10629 10626 10622 10619 10617 10615 10613 10612 10610 10608 10607 10606 10606 10608 10609 10611 10615 10618 10620 10621 10623 10626 10631 10636 10641 10646 10650
10805 10806 10808 10811 10812 10809 10805 10803 10803 10802 10801 10800 10797 10794 10791 10788 10786 10785 10783 10781 10779 10777 10775 10773 10772 10771 10769 10767 10766 10764 10760 10757 10753 10750 10747 10743 10740 10737 10734 10730 10725 10718 10714 10710 10704 10698 10692 10686 10681 10678 10674 10667 10660 10654 10649 10645 10639 10635 10631 10627 10623 10619 10615 10612 10610 10608 10606 10604 10603 10602 10601 10600 10600 10601 10603 10605 10609 10612 10615 10616 10618 10620 10624 10630 10636 10641 10645
10796 10798 10800 10801 10801 10800 10798 10796 10796 10795 10793 10791 10788 10786 10784 10782 10779 10777 10774 10771 10770 10769 10768 10766 10765 10763 10760 10758 10757 10756 10754 10751 10747 10743 10740 10736 10731 10727 10724 10720 10715 10709 10704 10699 10693 10687 10682 10676 10671 10668 10666 10660 10653 10647 10642 10637 10631 10627 10625 10621 10617 10612 10608 10605 10603 10601 10600 10598 10596 10595 10594 10594 10594 10594 10596 10599 10602 10606 10609 10611 10613 10615 10619 10624 10631 10635 10639
10789 10791 10793 10793 10792 10791 10791 10789 10788 10787 10784 10781 10779 10779 10778 10776 10773 10770 10767 10764 10763 10763 10761 10759 10757 10755 10752 10750 10748 10746 10744 10741 10738 10734 10731 10727 10722 10718 10715 10711 10706 10700 10695 10689 10682 10676 10671 10666 10661 10659 10657 10651 10645 10639 10634 10629 10624 10619 10617 10615 10610 10605 10602 10598 10596 10595 10593 10591 10590 10589 10587 10587 10587 10588 10589 10592 10595 10599 10603 10606 10608 10611 10613 10618 10624 10630 10633
10782 10783 10785 10785 10783 10783 10783 10782 10780 10779 10776 10773 10771 10771 10769 10767 10765 10762 10759 10758 10757 10757 10756 10753 10751 10747 10745 10744 10741 10737 10734 10730 10726 10722 10718 10715 10711 10707 10703 10700 10695 10690 10685 10680 10673 10667 10661 10655 10652 10649 10646 10642 10637 10631 10625 10620 10616 10611 10609 10608 10604 10599 10595 10592 10589 10588 10586 10583 10583 10582 10581 10581 10581 10582 10582 10585 10587 10591 10596 10600 10603 10606 10608 10612 10618 10624 10628
10773 10774 10776 10776 10774 10775 10776 10775 10773 10771 10769 10766 10764 10762 10760 10758 10756 10755 10753 10751 10750 10750 10749 10747 10744 10740 10738 10736 10733 10730 10725 10720 10716 10712 10707 10703 10699 10695 10691 10689 10685 10680 10675 10670 10665 10659 10652 10646 10643 10640 10636 10631 10628 10623 10617 10612 10607 10602 10600 10599 10596 10592 10589 10585 10582 10580 10578 10576 10576 10576 10575 10574 10575 10576 10577 10578 10581 10584 10589 10594 10598 10601 10604 10607 10612 10617 10622
10760 10762 10765 10766 10766 10766 10767 10767 10766 10764 10762 10759 10756 10753 10751 10749 10748 10747 10746 10744 10743 10742 10742 10740 10737 10732 10729 10727 10724 10721 10717 10713 10708 10705 10701 10696 10691 10686 10681 10678 10674 10669 10664 10659 10655 10650 10642 10636 10633 10630 10625 10620 10618 10613 10608 10603 10599 10594 10591 10590 10588 10585 10581 10578 10575 10573 10571 10569 10569 10569 10569 10568 10569 10570 10571 10572 10575 10578 10582 10587 10591 10595 10598 10602 10606 10611 10616
10749 10750 10753 10755 10757 10758 10758 10757 10756 10755 10753 10751 10748 10745 10742 10741 10740 10738 10737 10735 10734 10733 10733 10732 10730 10725 10721 10718 10715 10712 10708 10704 10700 10696 10692 10688 10683 10678 10673 10669 10664 10660 10655 10649 10644 10639 10632 10625 10622 10619 10614 10610 10607 10604 10599 10595 10591 10587 10584 10581 10580 10578 10574 10570 10568 10566 10565 10563 10562 10563 10563 10563 10563 10564 10566 10567 10569 10572 10575 10580 10585 10589 10592 10596 10600 10605 10610
10739 10740 10741 10743 10745 10747 10748 10748 10747 10745 10742 10740 10739 10737 10734 10732 10731 10729 10727 10726 10725 10723 10723 10722 10720 10716 10712 10709 10705 10701 10697 10693 10689 10685 10682 10678 10673 10668 10664 10660 10656 10651 10647 10641 10636 10630 10623 10616 10612 10609 10605 10601 10598 10595 10591 10587 10583 10579 10576 10574 10572 10570 10568 10564 10561 10560 10559 10557 10556 10556 10557 10557 10557 10559 10561 10562 10564 10567 10569 10573 10578 10582 10586 10591 10595 10600 10604
10729 10730 10732 10733 10732 10733 10735 10736 10735 10731 10729 10728 10727 10726 10723 10721 10720 10719 10717 10716 10715 10714 10713 10711 10708 10705 10702 10699 10695 10691 10687 10683 10679 10676 10672 10668 10663 10658 10653 10650 10646 10642 10637 10633 10628 10622 10615 10608 10603 10600 10597 10593 10590 10587 10584 10580 10576 10572 10569 10566 10564 10563 10561 10558 10555 10554 10553 10551 10551 10551 10551 10552 10552 10553 10555 10557 10559 10562 10564 10567 10571 10576 10581 10585 10590 10595 10599
10720 10721 10722 10722 10722 10722 10724 10724 10722 10719 10719 10718 10716 10713 10710 10709 10708 10709 10707 10706 10704 10703 10701 10698 10695 10692 10690 10687 10684 10680 10676 10672 10669 10667 10663 10659 10654 10649 10645 10641 10636 10631 10627 10623 10618 10613 10607 10600 10593 10590 10588 10583 10580 10579 10576 10572 10569 10566 10564 10561 10558 10556 10555 10553 10549 10547 10547 10546 10545 10545 10546 10546 10547 10548 10549 10551 10554 10557 10559 10562 10565 10570 10575 10579 10584 10589 10593
10712 10714 10712 10711 10712 10713 10713 10712 10711 10710 10710 10708 10704 10701 10699 10698 10698 10699 10698 10697 10695 10693 10690 10687 10684 10681 10678 10675 10673 10670 10666 10662 10658 10655 10652 10648 10644 10640 10636 10632 10627 10621 10617 10612 10607 10603 10598 10591 10584 10581 10579 10574 10570 10569 10567 10564 10560 10559 10558 10556 10553 10551 10549 10548 10544 10542 10541 10540 10540 10540 10540 10541 10542 10544 10545 10546 10549 10552 10554 10557 10560 10564 10568 10572 10577 10582 10586
10702 10704 10703 10701 10702 10703 10702 10701 10702 10701 10700 10696 10692 10689 10687 10687 10688 10689 10688 10688 10687 10685 10681 10677 10674 10671 10667 10664 10662 10659 10655 10652 10648 10645 10642 10638 10633 10628 10624 10620 10615 10611 10606 10602 10597 10592 10587 10582 10576 10572 10569 10565 10561 10559 10558 10556 10553 10551 10550 10550 10549 10546 10544 10542 10539 10537 10536 10535 10536 10536 10536 10537 10538 10539 10541 10542 10544 10547 10550 10553 10555 10558 10562 10566 10570 10574 10578
10690 10692 10693 10692 10693 10693 10693 10693 10692 10691 10689 10686 10682 10678 10677 10678 10679 10678 10678 10678 10677 10675 10671 10667 10664 10661 10657 10653 10650 10646 10643 10640 10637 10635 10631 10627 10622 10617 10613 10608 10603 10599 10594 10590 10585 10581 10577 10572 10568 10563 10558 10555 10553 10550 10549 10548 10546 10544 10543 10543 10542 10541 10540 10538 10535 10533 10532 10532 10532 10533 10533 10534 10534 10535 10537 10539 10540 10542 10545 10548 10551 10553 10555 10558 10562 10566 10570
10679 10680 10680 10682 10684 10684 10685 10685 10682 10680 10679 10675 10670 10667 10669 10671 10670 10667 10665 10665 10665 10662 10659 10657 10654 10649 10645 10641 10637 10633 10630 10627 10624 10622 10618 10614 10609 10606 10602 10597 10592 10587 10583 10578 10574 10571 10567 10562 10558 10554 10549 10547 10545 10543 10542 10541 10540 10539 10538 10537 10536 10535 10534 10533 10531 10529 10528 10528 10529 10529 10530 10530 10530 10531 10532 10534 10536 10538 10540 10542 10545 10547 10549 10551 10554 10557 10561
10668 10667 10668 10671 10674 10675 10675 10674 10671 10669 10667 10663 10657 10657 10660 10661 10658 10653 10651 10651 10652 10650 10648 10646 10643 10639 10634 10629 10626 10622 10619 10615 10611 10608 10604 10600 10597 10593 10589 10585 10580 10575 10571 10567 10563 10560 10556 10551 10548 10545 10542 10539 10537 10536 10536 10535 10534 10533 10533 10532 10531 10530 10529 10527 10526 10525 10525 10524 10525 10526 10526 10526 10526 10527 10529 10530 10532 10533 10534 10536 10538 10541 10543 10544 10547 10550 10553
10655 10656 10659 10664 10666 10665 10662 10660 10659 10658 10656 10650 10647 10649 10652 10649 10644 10640 10639 10640 10641 10640 10638 10636 10633 10629 10625 10621 10617 10613 10609 10604 10600 10596 10592 10588 10585 10582 10579 10574 10569 10564 10560 10556 10552 10549 10546 10541 10538 10537 10534 10531 10530 10530 10530 10530 10529 10528 10527 10527 10526 10525 10523 10522 10521 10520 10520 10520 10521 10522 10522 10523 10523 10524 10525 10527 10528 10529 10529 10531 10532 10534 10536 10538 10540 10543 10546
10641 10644 10651 10656 10657 10655 10651 10649 10649 10648 10645 10642 10641 10642 10642 10638 10632 10629 10629 10630 10630 10629 10627 10624 10620 10617 10614 10611 10607 10603 10599 10593 10588 10584 10580 10577 10575 10572 10569 10565 10560 10554 10550 10546 10542 10539 10536 10533 10530 10529 10527 10525 10524 10524 10524 10524 10524 10522 10522 10522 10521 10519 10518 10516 10516 10515 10516 10517 10517 10518 10519 10519 10520 10521 10522 10523 10523 10524 10524 10525 10526 10528 10529 10531 10533 10536 10539
10630 10632 10639 10644 10644 10642 10641 10640 10638 10637 10636 10636 10634 10631 10629 10626 10623 10620 10619 10619 10618 10616 10613 10609 10606 10603 10601 10598 10595 10591 10587 10582 10576 10572 10568 10566 10563 10560 10557 10554 10550 10545 10540 10537 10533 10530 10528 10527 10525 10523 10520 10518 10518 10519 10519 10518 10517 10516 10516 10516 10515 10514 10511 10510 10510 10511 10512 10513 10514 10514 10515 10515 10516 10516 10517 10518 10518 10518 10519 10519 10520 10521 10523 10524 10526 10529 10532
10622 10624 10628 10629 10628 10629 10630 10629 10627 10626 10627 10628 10625 10620 10617 10615 10612 10610 10609 10608 10606 10603 10600 10597 10595 10593 10590 10587 10583 10580 10575 10570 10566 10561 10558 10555 10553 10549 10545 10541 10538 10535 10531 10527 10523 10521 10519 10519 10519 10517 10515 10513 10512 10513 10513 10511 10509 10509 10510 10509 10509 10507 10505 10504 10506 10507 10508 10509 10510 10509 10509 10510 10511 10512 10513 10513 10513 10513 10513 10514 10515 10515 10516 10517 10519 10520 10523
10614 10617 10618 10615 10615 10617 10617 10616 10615 10616 10617 10616 10613 10610 10607 10604 10602 10600 10599 10597 10593 10591 10589 10587 10585 10584 10581 10577 10574 10570 10565 10560 10555 10551 10548 10545 10543 10539 10535 10530 10527 10525 10521 10517 10514 10512 10511 10511 10509 10507 10507 10507 10506 10506 10507 10505 10502 10502 10502 10503 10503 10502 10499 10499 10502 10503 10503 10504 10504 10504 10504 10505 10506 10508 10508 10508 10507 10507 10507 10508 10509 10509 10510 10511 10512 10513 10514
10603 10608 10607 10605 10604 10604 10602 10601 10603 10605 10605 10603 10601 10599 10596 10594 10593 10591 10588 10585 10583 10581 10579 10577 10575 10572 10570 10567 10564 10559 10555 10550 10544 10541 10538 10536 10532 10529 10524 10520 10517 10514 10511 10507 10504 10502 10502 10502 10500 10497 10498 10500 10500 10500 10500 10498 10496 10495 10495 10496 10497 10497 10495 10495 10496 10497 10498 10498 10498 10498 10499 10500 10502 10502 10502 10502 10502 10502 10501 10502 10502 10503 10504 10505 10506 10506 10507
10593 10594 10594 10594 10594 10591 10589 10589 10592 10593 10592 10591 10590 10588 10586 10584 10582 10579 10577 10575 10573 10572 10570 10567 10564 10561 10559 10556 10553 10549 10544 10539 10534 10530 10527 10525 10522 10517 10513 10510 10508 10505 10501 10498 10496 10494 10493 10493 10491 10489 10490 10492 10493 10493 10493 10491 10490 10489 10489 10489 10490 10490 10489 10489 10490 10491 10491 10491 10492 10492 10494 10495 10496 10496 10496 10496 10495 10495 10495 10495 10496 10496 10497 10498 10498 10499 10499
10583 10580 10579 10580 10580 10577 10577 10579 10581 10580 10579 10579 10578 10577 10575 10572 10569 10567 10566 10565 10564 10562 10560 10558 10555 10552 10548 10545 10542 10538 10533 10528 10523 10519 10517 10514 10511 10506 10503 10500 10498 10495 10492 10489 10488 10487 10486 10485 10484 10484 10485 10485 10486 10486 10485 10484 10483 10483 10483 10482 10482 10482 10483 10483 10483 10484 10484 10485 10486 10487 10488 10489 10489 10489 10489 10489 10489 10489 10488 10488 10489 10489 10489 10490 10490 10491 10491
10569 10567 10566 10566 10565 10565 10566 10569 10570 10569 10568 10567 10566 10565 10563 10560 10557 10556 10557 10556 10554 10552 10550 10548 10545 10542 10538 10534 10530 10526 10522 10517 10513 10509 10506 10503 10499 10496 10493 10490 10488 10486 10484 10482 10481 10480 10479 10478 10478 10478 10479 10479 10478 10478 10478 10477 10477 10477 10476 10475 10474 10475 10476 10476 10477 10477 10478 10479 10479 10480 10481 10481 10481 10482 10482 10482 10481 10481 10481 10481 10481 10481 10481 10481 10481 10482 10482
10554 10554 10554 10554 10554 10555 10556 10557 10557 10557 10557 10556 10555 10553 10550 10548 10547 10547 10546 10544 10542 10541 10540 10538 10535 10532 10527 10523 10519 10515 10511 10507 10503 10500 10497 10493 10489 10486 10484 10482 10480 10478 10476 10475 10475 10474 10473 10472 10472 10473 10473 10472 10471 10471 10471 10471 10470 10470 10469 10468 10468 10468 10469 10470 10471 10472 10472 10473 10473 10473 10473 10474 10474 10473 10473 10473 10473 10472 10472 10472 10472 10472 10472 10472 10472 10472 10472
10539 10540 10541 10543 10544 10545 10545 10545 10546 10546 10546 10544 10543 10541 10539 10539 10539 10538 10535 10532 10531 10530 10529 10527 10524 10521 10517 10513 10509 10505 10501 10497 10494 10491 10488 10484 10480 10477 10475 10474 10473 10471 10469 10469 10469 10469 10469 10468 10467 10468 10468 10467 10466 10465 10465 10465 10464 10463 10462 10462 10462 10462 10462 10463 10464 10465 10466 10466 10466 10466 10466 10466 10465 10465 10464 10464 10464 10463 10463 10463 10463 10463 10463 10463 10463 10463 10462
10526 10528 10530 10531 10533 10534 10535 10536 10536 10535 10534 10532 10531 10530 10531 10531 10530 10528 10525 10524 10522 10520 10518 10516 10513 10510 10506 10503 10500 10495 10491 10487 10484 10483 10480 10476 10472 10469 10467 10465 10464 10464 10463 10464 10464 10464 10463 10463 10463 10463 10463 10462 10461 10461 10460 10459 10458 10457 10456 10456 10456 10456 10456 10456 10457 10458 10459 10459 10459 10458 10457 10457 10456 10456 10455 10455 10455 10454 10454 10454 10453 10453 10453 10453 10453 10452 10452
10514 10516 10518 10520 10521 10523 10524 10526 10525 10523 10522 10521 10521 10521 10521 10521 10520 10518 10517 10515 10513 10511 10509 10505 10502 10499 10496 10493 10490 10487 10482 10478 10476 10473 10471 10468 10466 10463 10460 10459 10458 10457 10457 10458 10458 10458 10458 10457 10457 10458 10459 10458 10457 10456 10455 10453 10452 10451 10450 10450 10449 10449 10450 10450 10450 10451 10451 10451 10450 10449 10448 10447 10447 10447 10447 10447 10446 10445 10444 10443 10443 10443 10443 10443 10442 10441 10440
10504 10506 10508 10509 10510 10511 10512 10513 10513 10513 10513 10513 10512 10511 10511 10511 10510 10509 10507 10506 10504 10502 10499 10495 10492 10489 10487 10484 10481 10478 10474 10471 10468 10465 10462 10460 10458 10456 10455 10453 10453 10452 10452 10452 10452 10452 10452 10452 10452 10453 10453 10452 10451 10450 10448 10447 10446 10445 10444 10443 10443 10443 10442 10442 10442 10443 10443 10443 10442 10441 10440 10438 10437 10437 10437 10438 10437 10436 10434 10433 10433 10433 10432 10431 10429 10428 10427
10494 10496 10497 10497 10499 10500 10501 10502 10503 10503 10504 10503 10502 10502 10502 10502 10500 10499 10498 10497 10495 10492 10489 10486 10483 10481 10478 10475 10472 10470 10466 10464 10461 10458 10455 10453 10452 10450 10449 10448 10448 10447 10447 10447 10447 10447 10447 10447 10446 10446 10446 10445 10445 10444 10442 10441 10440 10438 10437 10437 10436 10435 10435 10435 10434 10434 10434 10434 10433 10432 10431 10430 10428 10426 10426 10426 10426 10425 10424 10423 10423 10422 10421 10418 10417 10415 10415
10484 10485 10486 10487 10489 10491 10492 10493 10493 10494 10494 10494 10494 10494 10493 10492 10491 10489 10488 10487 10485 10482 10479 10477 10475 10472 10469 10466 10464 10461 10459 10456 10454 10452 10450 10448 10446 10445 10444 10443 10443 10443 10442 10442 10442 10442 10442 10441 10440 10440 10439 10439 10439 10438 10437 10436 10434 10433 10432 10430 10429 10428 10428 10427 10426 10425 10424 10424 10424 10424 10422 10420 10418 10417 10415 10414 10414 10413 10412 10412 10411 10410 10408 10406 10405 10403 10402
10476 10477 10478 10480 10481 10483 10484 10484 10484 10484 10485 10485 10485 10485 10485 10483 10482 10480 10479 10477 10474 10472 10469 10467 10466 10464 10461 10459 10456 10453 10451 10449 10448 10446 10444 10443 10441 10439 10439 10438 10438 10437 10436 10436 10436 10437 10437 10436 10435 10434 10433 10433 10433 10432 10430 10429 10429 10427 10426 10424 10423 10422 10421 10419 10416 10414 10413 10413 10413 10413 10411 10409 10407 10406 10405 10403 10401 10400 10400 10399 10398 10396 10395 10394 10392 10391 10390
10469 10470 10471 10473 10474 10475 10476 10476 10476 10476 10476 10477 10476 10476 10475 10474 10472 10471 10469 10467 10464 10462 10460 10458 10456 10455 10454 10451 10448 10446 10444 10443 10441 10440 10439 10437 10436 10434 10433 10433 10432 10431 10430 10430 10429 10429 10430 10430 10429 10428 10427 10427 10425 10424 10423 10422 10421 10420 10418 10417 10416 10415 10413 10410 10407 10405 10402 10401 10401 10400 10399 10396 10395 10394 10393 10391 10389 10387 10386 10385 10384 10383 10382 10381 10379 10378 10377
10463 10465 10466 10467 10468 10469 10470 10470 10469 10469 10469 10468 10468 10467 10466 10464 10463 10461 10459 10457 10455 10453 10451 10449 10448 10447 10446 10444 10442 10440 10438 10436 10435 10434 10433 10432 10431 10429 10428 10427 10426 10425 10424 10422 10421 10421 10422 10422 10422 10421 10421 10419 10417 10415 10415 10414 10413 10411 10409 10408 10408 10407 10404 10402 10399 10396 10393 10391 10390 10389 10387 10385 10383 10382 10380 10379 10377 10375 10374 10372 10371 10370 10368 10367 10366 10364 10363
10459 10460 10461 10462 10463 10463 10464 10464 10463 10462 10461 10460 10459 10458 10456 10455 10454 10452 10450 10449 10447 10445 10443 10441 10440 10440 10439 10437 10435 10434 10433 10431 10429 10428 10427 10426 10425 10424 10423 10422 10420 10419 10417 10415 10414 10413 10414 10415 10415 10414 10412 10410 10408 10407 10406 10406 10404 10402 10400 10399 10399 10398 10396 10393 10390 10388 10385 10383 10380 10379 10377 10375 10373 10371 10369 10368 10366 10364 10362 10360 10358 10357 10355 10354 10352 10350 10349
10455 10456 10456 10457 10457 10458 10458 10457 10456 10455 10453 10453 10452 10450 10448 10447 10445 10444 10443 10442 10440 10437 10435 10434 10434 10433 10432 10430 10429 10428 10426 10425 10424 10422 10421 10420 10420 10419 10418 10417 10415 10413 10411 10408 10406 10405 10406 10407 10407 10406 10404 10401 10400 10399 10398 10397 10395 10393 10392 10391 10390 10389 10387 10385 10382 10380 10378 10375 10372 10369 10367 10365 10363 10360 10358 10356 10354 10353 10351 10349 10347 10345 10343 10341 10339 10338 10336
10450 10451 10452 10452 10452 10452 10451 10450 10449 10447 10447 10446 10444 10442 10441 10440 10439 10437 10436 10434 10432 10430 10428 10427 10427 10426 10425 10424 10423 10421 10420 10419 10418 10417 10416 10415 10415 10414 10412 10411 10410 10409 10406 10403 10400 10398 10398 10400 10401 10399 10397 10395 10393 10393 10392 10390 10388 10385 10383 10382 10381 10380 10378 10376 10373 10371 10368 10365 10362 10359 10357 10355 10352 10350 10347 10345 10343 10341 10339 10337 10335 10333 10331 10330 10328 10326 10324
10445 10446 10447 10447 10446 10445 10444 10442 10442 10441 10440 10438 10437 10436 10435 10434 10433 10431 10429 10427 10426 10424 10422 10421 10420 10420 10420 10419 10418 10416 10415 10414 10413 10413 10412 10411 10409 10408 10406 10405 10404 10403 10401 10398 10394 10391 10391 10392 10393 10391 10389 10387 10385 10384 10383 10382 10381 10378 10375 10373 10371 10369 10367 10365 10363 10360 10358 10355 10352 10349 10346 10344 10341 10339 10337 10335 10332 10330 10328 10326 10325 10323 10321 10319 10318 10316 10314
10441 10441 10441 10441 10440 10438 10437 10436 10435 10434 10433 10432 10431 10430 10429 10428 10427 10425 10423 10422 10420 10418 10416 10415 10414 10414 10414 10413 10413 10412 10411 10410 10410 10409 10408 10407 10405 10404 10403 10401 10400 10398 10396 10394 10390 10387 10386 10386 10385 10383 10382 10380 10378 10375 10374 10373 10371 10368 10366 10364 10362 10359 10357 10355 10352 10349 10347 10345 10342 10339 10336 10333 10331 10328 10326 10325 10323 10321 10319 10317 10315 10313 10312 10310 10308 10306 10305